Change the Weather History Date:

Wednesday, May 15, 2013

  Actual Average Record
Temperature  
Mean Temperature 50 °F -  
Max Temperature 64 °F 62 °F 88 °F (2004)
Min Temperature 37 °F 42 °F 37 °F (2013)
Degree Days  
Heating Degree Days 14    
Moisture  
Dew Point 39 °F    
Average Humidity 62    
Maximum Humidity 86    
Minimum Humidity 35    
Precipitation  
Precipitation 0.00 in - - ()
Sea Level Pressure  
Sea Level Pressure 29.88 in    
Wind  
Wind Speed 6 mph (SSW)    
Max Wind Speed 17 mph    
Max Gust Speed 29 mph    
Visibility 10 miles    
Events      
Averages and records for this station are not official NWS values.
T = Trace of Precipitation, MM = Missing Value Source: NWS Daily Summary

Daily Weather History Graph

Daily Weather History Graph

Search for Another Location

Airport or City:

Trip Planner

Search our weather history database for the weather conditions in past years. The results will help you decide how hot, cold, wet, or windy it might be!

Date:

Astronomy

May. 15, 2013 Rise Set
Actual Time 5:21 AM EDT 7:59 PM EDT
Civil Twilight 4:49 AM EDT 8:31 PM EDT
Nautical Twilight 4:08 AM EDT 9:12 PM EDT
Astronomical Twilight 3:22 AM EDT 9:58 PM EDT
Moon 9:55 AM EDT (5/15) No Moon Set
Length of Visible Light 15h 42m
Length of Day
14h 37m
Waxing Crescent, 26% of the Moon is Illuminated
May 15
Waxing Crescent
May 18
First Quarter
May 25
Full
May 31
Last Quarter
Jun 8
New

Hourly Weather History & Observations

Time (EDT) Temp. Windchill Dew Point Humidity Pressure Visibility Wind Dir Wind Speed Gust Speed Precip Events Conditions
12:53 AM 41.0 °F 37.1 °F 30.0 °F 65% 30.03 in 10.0 mi NW 5.8 mph - N/A   Partly Cloudy
1:53 AM 39.9 °F - 30.0 °F 68% 30.03 in 10.0 mi Calm Calm - N/A   Clear
2:53 AM 39.9 °F - 30.9 °F 70% 30.03 in 10.0 mi Calm Calm - N/A   Clear
3:53 AM 37.9 °F - 30.9 °F 76% 30.03 in 10.0 mi Calm Calm - N/A   Clear
4:53 AM 37.0 °F - 30.9 °F 79% 30.03 in 10.0 mi Calm Calm - N/A   Clear
5:53 AM 37.9 °F - 30.9 °F 76% 30.04 in 10.0 mi Calm Calm - N/A   Clear
6:53 AM 43.0 °F - 34.0 °F 71% 30.04 in 10.0 mi Calm Calm - N/A   Clear
7:53 AM 51.1 °F - 33.1 °F 50% 30.04 in 10.0 mi SW 3.5 mph - N/A   Clear
8:53 AM 55.9 °F - 30.9 °F 39% 30.02 in 10.0 mi WSW 5.8 mph - N/A   Clear
9:53 AM 57.9 °F - 30.0 °F 35% 29.99 in 10.0 mi Variable 3.5 mph - N/A   Clear
10:53 AM 60.1 °F - 33.1 °F 36% 29.98 in 10.0 mi SE 9.2 mph - N/A   Clear
11:53 AM 59.0 °F - 39.9 °F 49% 29.96 in 10.0 mi SE 13.8 mph - N/A   Clear
12:53 PM 57.9 °F - 41.0 °F 53% 29.94 in 10.0 mi SE 17.3 mph - N/A   Mostly Cloudy
1:53 PM 62.1 °F - 39.9 °F 44% 29.90 in 10.0 mi SW 11.5 mph 16.1 mph N/A   Overcast
2:53 PM 64.0 °F - 37.0 °F 37% 29.85 in 10.0 mi South 16.1 mph 23.0 mph N/A   Partly Cloudy
3:53 PM 61.0 °F - 35.1 °F 38% 29.82 in 10.0 mi South 13.8 mph 28.8 mph 0.00 in   Overcast
4:53 PM 57.9 °F - 42.1 °F 56% 29.82 in 10.0 mi South 12.7 mph 21.9 mph 0.00 in   Overcast
5:53 PM 57.0 °F - 46.0 °F 67% 29.76 in 10.0 mi South 13.8 mph 20.7 mph 0.00 in   Overcast
6:00 PM 57.2 °F - 46.4 °F 67% 29.77 in 10.0 mi South 12.7 mph 20.7 mph N/A   Overcast
6:53 PM 55.9 °F - 46.9 °F 72% 29.73 in 10.0 mi South 16.1 mph 27.6 mph N/A   Overcast
7:53 PM 55.9 °F - 48.0 °F 75% 29.72 in 10.0 mi South 9.2 mph 18.4 mph N/A   Overcast
8:53 PM 55.9 °F - 48.9 °F 77% 29.70 in 10.0 mi South 9.2 mph - N/A   Overcast
9:46 PM 57.2 °F - 50.0 °F 77% 29.70 in 10.0 mi SSW 11.5 mph - N/A   Mostly Cloudy
9:53 PM 57.0 °F - 50.0 °F 77% 29.68 in 10.0 mi SSW 8.1 mph - N/A   Mostly Cloudy
10:53 PM 55.9 °F - 50.0 °F 80% 29.67 in 10.0 mi SW 8.1 mph - N/A   Scattered Clouds
11:53 PM 54.0 °F - 50.0 °F 86% 29.66 in 10.0 mi SW 6.9 mph - N/A   Clear